GW2922 Weather Reports


time (UTC)temp
F
wind
direction
speed
knots
gust
knots
rain 1hr
in
rain 24hr
in
rain mn
in
humidity
%
barometer
mb
20260831203824 68 88 2.6 5.2 0.00 0.00 0.00 63 1014.5
20260831203319 68 71 3.5 3.5 0.00 0.00 0.00 62 1014.5
20260831202817 68 83 2.6 5.2 0.00 0.00 0.00 63 1014.8
20260831202312 68 290 3.5 5.2 0.00 0.00 0.00 62 1014.8
20260831201807 67 61 2.6 5.2 0.00 0.00 0.00 63 1014.8
20260831201305 67 26 2.6 3.5 0.00 0.00 0.00 64 1014.8
20260831200801 68 15 1.7 3.5 0.00 0.00 0.00 64 1014.8
20260831200256 67 10 1.7 3.5 0.00 0.00 0.00 65 1014.8
20260831195751 68 253 1.7 3.5 0.00 0.00 0.00 63 1014.8
20260831195247 68 53 4.3 6.1 0.00 0.00 0.00 63 1014.8
20260831194742 68 192 1.7 2.6 0.00 0.00 0.00 64 1014.8
20260831194238 68 74 0.9 2.6 0.00 0.00 0.00 63 1014.8
20260831193731 66 349 1.7 7.0 0.00 0.00 0.00 66 1014.8
20260831193227 68 25 0.9 2.6 0.00 0.00 0.00 64 1015.2
20260831192722 66 357 1.7 5.2 0.00 0.00 0.00 66 1015.2
20260831192217 66 283 1.7 7.0 0.00 0.00 0.00 67 1015.2
20260831191713 66 86 0.9 2.6 0.00 0.00 0.00 67 1015.2
20260831191209 65 70 2.6 6.1 0.00 0.00 0.00 68 1015.5
20260831190704 65 42 2.6 3.5 0.00 0.00 0.00 67 1015.2
20260831190203 65 41 1.7 1.7 0.00 0.00 0.00 67 1015.2
20260831185659 65 298 2.6 3.5 0.00 0.00 0.00 68 1015.2
20260831185154 64 298 1.7 2.6 0.00 0.00 0.00 70 1015.5
20260831184653 64 76 0.9 2.6 0.00 0.00 0.00 70 1015.8
20260831184149 64 286 2.6 3.5 0.00 0.00 0.00 71 1015.5
20260831183648 64 28 2.6 2.6 0.00 0.00 0.00 70 1015.5
20260831183148 64 95 1.7 2.6 0.00 0.00 0.00 71 1015.5
20260831182647 65 87 1.7 2.6 0.00 0.00 0.00 70 1015.8
20260831182143 65 90 0.0 2.6 0.00 0.00 0.00 72 1015.8
20260831181637 64 109 0.9 1.7 0.00 0.00 0.00 72 1015.8
20260831181132 63 209 0.9 2.6 0.00 0.00 0.00 74 1015.8
20260831180627 62 126 1.7 3.5 0.00 0.00 0.00 75 1015.8
20260831180122 62 340 1.7 2.6 0.00 0.00 0.00 77 1015.8
20260831175616 62 74 1.7 5.2 0.00 0.00 0.00 76 1015.8
20260831175114 62 72 1.7 3.5 0.00 0.00 0.00 76 1015.8
20260831174613 62 91 1.7 3.5 0.00 0.00 0.00 76 1015.8
20260831174108 61 96 0.0 5.2 0.00 0.00 0.00 77 1016.2
20260831173606 61 57 1.7 6.1 0.00 0.00 0.00 77 1015.8
20260831173102 61 61 0.9 5.2 0.00 0.00 0.00 77 1015.8
20260831172557 61 102 1.7 5.2 0.00 0.00 0.00 76 1016.2
20260831172052 62 109 1.7 3.5 0.00 0.00 0.00 76 1016.2
20260831171547 62 310 2.6 5.2 0.00 0.00 0.00 75 1016.2
20260831171044 61 110 0.9 3.5 0.00 0.00 0.00 77 1016.2
20260831170540 61 87 1.7 5.2 0.00 0.00 0.00 76 1016.2
20260831170038 61 315 2.6 5.2 0.00 0.00 0.00 77 1016.2
20260831165537 61 76 1.7 2.6 0.00 0.00 0.00 77 1015.8
20260831165034 60 316 1.7 3.5 0.00 0.00 0.00 78 1016.2
20260831164530 60 84 1.7 2.6 0.00 0.00 0.00 80 1016.2
20260831164025 60 71 1.7 2.6 0.00 0.00 0.00 80 1016.2
20260831163520 59 352 0.0 0.9 0.00 0.00 0.00 81 1016.2
20260831163016 59 11 0.9 0.9 0.00 0.00 0.00 82 1016.5
20260831162515 59 30 0.0 1.7 0.00 0.00 0.00 82 1016.2
20260831162012 58 18 0.9 1.7 0.00 0.00 0.00 83 1016.2
20260831161509 58 1 0.9 1.7 0.00 0.00 0.00 83 1016.2
20260831161005 58 356 2.6 2.6 0.00 0.00 0.00 84 1016.5
20260831160504 57 258 2.6 5.2 0.00 0.00 0.00 85 1016.5
20260831155959 57 100 0.0 1.7 0.00 0.00 0.00 86 1016.5
20260831155454 57 61 0.9 2.6 0.00 0.00 0.00 87 1016.2
20260831154949 57 308 0.9 2.6 0.00 0.00 0.00 90 1016.5
20260831154446 57 307 1.7 2.6 0.00 0.00 0.00 91 1016.5
20260831153944 56 147 0.0 0.9 0.00 0.00 0.00 92 1016.9
20260831153440 56 105 0.0 2.6 0.00 0.00 0.00 93 1016.5
20260831152937 55 330 2.6 2.6 0.00 0.00 0.00 94 1016.5
20260831152432 55 314 0.0 1.7 0.00 0.00 0.00 94 1016.5
20260831151927 55 124 1.7 2.6 0.00 0.00 0.00 95 1016.5
20260831151426 55 359 0.0 1.7 0.00 0.00 0.00 95 1016.9
20260831150921 55 73 0.9 2.6 0.00 0.00 0.00 95 1016.5
20260831150417 55 82 0.9 3.5 0.00 0.00 0.00 95 1016.5
20260831145916 55 80 0.9 0.9 0.00 0.00 0.00 95 1016.9
20260831145412 54 99 0.0 2.6 0.00 0.00 0.00 95 1016.5
20260831144908 54 24 1.7 2.6 0.00 0.00 0.00 95 1016.9
20260831144403 54 25 0.0 2.6 0.00 0.00 0.00 95 1016.9
20260831143858 54 178 0.0 2.6 0.00 0.00 0.00 95 1016.5
20260831143348 54 334 1.7 3.5 0.00 0.00 0.00 95 1016.9
20260831142843 54 80 0.0 0.9 0.00 0.00 0.00 95 1016.5
20260831142338 54 340 0.9 1.7 0.00 0.00 0.00 95 1016.9
20260831141832 53 95 0.0 0.9 0.00 0.00 0.00 95 1016.5
20260831141327 53 28 0.0 1.7 0.00 0.00 0.00 95 1016.5
20260831140821 53 339 1.7 2.6 0.00 0.00 0.00 95 1016.5
20260831140316 53 91 0.0 0.9 0.00 0.00 0.00 95 1016.5
20260831135814 53 96 0.0 1.7 0.00 0.00 0.00 95 1016.5
20260831135310 53 58 0.9 1.7 0.00 0.00 0.00 95 1016.5
20260831134805 53 326 0.9 3.5 0.00 0.00 0.00 95 1016.5
20260831134302 53 75 0.9 1.7 0.00 0.00 0.00 95 1016.9
20260831133800 53 21 0.9 5.2 0.00 0.00 0.00 95 1016.5
20260831133255 53 294 0.9 1.7 0.00 0.00 0.00 95 1016.5
20260831132750 53 29 0.9 0.9 0.00 0.00 0.00 95 1016.5
20260831132244 53 79 0.9 0.9 0.00 0.00 0.00 95 1016.9
20260831131738 53 101 0.0 6.1 0.00 0.00 0.00 95 1016.5
20260831131235 53 84 0.9 1.7 0.00 0.00 0.00 95 1016.9
20260831130730 53 187 1.7 2.6 0.00 0.00 0.00 95 1016.9
20260831130226 53 106 0.0 1.7 0.00 0.00 0.00 95 1016.9
20260831125724 53 331 3.5 5.2 0.00 0.00 0.00 95 1016.9
20260831125221 53 43 0.9 1.7 0.00 0.00 0.00 95 1016.9
20260831124715 53 86 0.9 2.6 0.00 0.00 0.00 95 1016.9
20260831124211 53 12 1.7 2.6 0.00 0.00 0.00 95 1016.9
20260831123711 53 95 0.0 2.6 0.00 0.00 0.00 94 1016.9
20260831123210 53 28 0.9 2.6 0.00 0.00 0.00 94 1017.2
20260831122709 53 27 0.9 1.7 0.00 0.00 0.00 94 1016.9
20260831122200 53 324 0.9 0.9 0.00 0.00 0.00 94 1017.2
20260831121659 54 94 0.9 5.2 0.00 0.00 0.00 94 1017.2
20260831121156 54 88 0.9 1.7 0.00 0.00 0.00 94 1016.9
20260831120651 54 31 1.7 1.7 0.00 0.00 0.00 94 1017.2
20260831120145 54 58 0.9 0.9 0.00 0.00 0.00 94 1017.2
20260831115642 54 295 0.9 2.6 0.00 0.00 0.00 94 1017.5
20260831115137 54 102 0.0 0.9 0.00 0.00 0.00 94 1017.5
20260831114636 54 75 0.9 1.7 0.00 0.00 0.00 94 1017.5
20260831114131 54 41 1.7 1.7 0.00 0.00 0.00 94 1017.5
20260831113630 54 356 1.7 2.6 0.00 0.00 0.00 94 1017.5
20260831113126 54 56 1.7 2.6 0.00 0.00 0.00 94 1017.5
20260831112624 54 59 0.9 0.9 0.00 0.00 0.00 94 1017.5
20260831112119 54 315 3.5 3.5 0.00 0.00 0.00 94 1017.9
20260831111610 54 147 0.9 0.9 0.00 0.00 0.00 93 1017.9
20260831111105 54 104 0.0 0.9 0.00 0.00 0.00 93 1017.5
20260831110600 55 300 2.6 5.2 0.00 0.00 0.00 93 1017.9
20260831110055 55 75 0.9 5.2 0.00 0.00 0.00 93 1017.9
20260831105554 55 51 0.9 2.6 0.00 0.00 0.00 93 1017.9
20260831105049 55 56 0.0 2.6 0.00 0.00 0.00 93 1017.5
20260831104546 55 322 1.7 3.5 0.00 0.00 0.00 93 1017.9
20260831104042 55 80 0.9 2.6 0.00 0.00 0.00 93 1017.9
20260831103537 55 82 0.9 2.6 0.00 0.00 0.00 93 1017.9
20260831103033 55 312 1.7 3.5 0.00 0.00 0.00 93 1017.9
20260831102532 55 307 1.7 1.7 0.00 0.00 0.00 92 1017.9
20260831102028 55 92 0.9 0.9 0.00 0.00 0.00 92 1017.9
20260831101522 55 91 0.9 2.6 0.00 0.00 0.00 92 1017.9
20260831101019 55 329 0.9 1.7 0.00 0.00 0.00 92 1017.9
20260831100514 55 350 0.9 5.2 0.00 0.00 0.00 92 1018.2
20260831100010 55 81 0.9 3.5 0.00 0.00 0.00 92 1018.2
20260831095509 55 62 0.9 1.7 0.00 0.00 0.00 92 1018.2
20260831095004 55 25 0.9 2.6 0.00 0.00 0.00 91 1018.2
20260831094500 55 109 0.0 3.5 0.00 0.00 0.00 91 1018.2
20260831093955 55 90 0.9 0.9 0.00 0.00 0.00 91 1018.2
20260831093450 55 94 1.7 1.7 0.00 0.00 0.00 91 1018.5
20260831092947 55 152 0.9 1.7 0.00 0.00 0.00 91 1018.5
20260831092442 55 79 0.0 1.7 0.00 0.00 0.00 90 1018.5
20260831091937 55 98 0.9 0.9 0.00 0.00 0.00 90 1018.5
20260831091433 55 57 0.9 1.7 0.00 0.00 0.00 90 1018.5
20260831090927 56 89 0.0 0.9 0.00 0.00 0.00 90 1018.5
20260831090424 56 297 2.6 5.2 0.00 0.00 0.00 90 1018.5
20260831085920 56 58 0.9 3.5 0.00 0.00 0.00 90 1018.5
20260831085415 56 43 0.9 3.5 0.00 0.00 0.00 89 1018.5
20260831084914 56 74 0.9 5.2 0.00 0.00 0.00 89 1018.5
20260831084410 56 75 0.9 2.6 0.00 0.00 0.00 89 1018.5
20260831083907 56 344 1.7 2.6 0.00 0.00 0.00 90 1018.5
20260831083402 56 77 0.9 1.7 0.00 0.00 0.00 89 1018.9
20260831082900 56 41 1.7 2.6 0.00 0.00 0.00 89 1018.9
20260831082400 56 99 0.0 0.9 0.00 0.00 0.00 89 1018.9
20260831081856 56 82 0.9 0.9 0.00 0.00 0.00 89 1018.9
20260831081351 56 104 0.0 0.9 0.00 0.00 0.00 89 1018.9
20260831080847 56 69 0.0 0.9 0.00 0.00 0.00 89 1019.2
20260831080342 56 357 1.7 1.7 0.00 0.00 0.00 89 1019.2
20260831075838 56 73 0.0 1.7 0.00 0.00 0.00 89 1019.2
20260831075332 56 52 0.9 0.9 0.00 0.00 0.00 89 1019.2
20260831074828 56 105 0.0 0.9 0.00 0.00 0.00 89 1019.2
20260831074327 56 18 1.7 2.6 0.00 0.00 0.00 89 1019.2
20260831073823 56 86 0.0 2.6 0.00 0.00 0.00 89 1019.2
20260831073321 56 76 0.0 0.9 0.00 0.00 0.00 89 1019.2
20260831072817 56 95 0.0 0.0 0.00 0.00 0.00 89 1019.6
20260831072313 56 92 0.9 0.9 0.00 0.00 0.00 89 1019.6
20260831071809 56 69 0.0 0.9 0.00 0.00 0.00 89 1019.6
20260831071307 56 101 0.0 0.9 0.00 0.00 0.00 89 1019.6
20260831070803 56 97 0.0 0.9 0.00 0.00 0.00 89 1019.6
20260831070302 56 98 0.0 0.9 0.00 0.00 0.00 89 1019.6
20260831065801 56 98 0.0 1.7 0.00 0.00 0.00 88 1019.6
20260831065259 56 90 0.0 0.9 0.00 0.00 0.00 88 1019.9
20260831064754 56 93 0.0 0.9 0.00 0.00 0.00 88 1019.9
20260831064249 56 100 0.0 0.9 0.00 0.00 0.00 88 1019.9
20260831063745 56 95 0.0 0.0 0.00 0.00 0.00 88 1019.9
20260831063239 56 90 0.0 1.7 0.00 0.00 0.00 88 1019.9
20260831062734 56 94 0.0 0.0 0.00 0.00 0.00 88 1020.2
20260831062229 56 91 0.0 0.9 0.00 0.00 0.00 87 1019.9
20260831061727 56 97 0.0 0.9 0.00 0.00 0.00 87 1019.9
20260831061222 57 47 1.7 1.7 0.00 0.00 0.00 87 1020.2
20260831060719 57 70 0.0 0.9 0.00 0.00 0.00 87 1020.2
20260831060218 57 91 0.0 0.9 0.00 0.00 0.00 86 1020.2
20260831055713 57 88 0.0 0.9 0.00 0.00 0.00 86 1020.2
20260831055207 57 95 0.9 0.9 0.00 0.00 0.00 86 1020.2
20260831054702 57 94 0.0 0.9 0.00 0.00 0.00 86 1020.2
20260831054201 57 82 0.9 1.7 0.00 0.00 0.00 86 1020.2
20260831053656 57 111 0.0 0.9 0.00 0.00 0.00 86 1020.2
20260831053154 57 91 0.0 0.9 0.00 0.00 0.00 86 1020.2
20260831052649 57 312 0.9 0.9 0.00 0.00 0.00 85 1020.2
20260831052148 57 103 0.9 1.7 0.00 0.00 0.00 85 1020.6
20260831051646 57 104 0.0 0.9 0.00 0.00 0.00 85 1020.6
20260831051145 58 87 0.9 1.7 0.00 0.00 0.00 85 1020.6
20260831050640 58 116 0.9 1.7 0.00 0.00 0.00 84 1020.6
20260831050139 58 102 0.0 1.7 0.00 0.00 0.00 84 1020.6
20260831045638 58 95 0.0 0.9 0.00 0.00 0.00 83 1020.6
20260831045133 58 313 0.0 1.7 0.00 0.00 0.00 83 1020.6
20260831044629 59 10 0.9 1.7 0.00 0.00 0.00 83 1020.6
20260831044124 59 102 0.0 0.0 0.00 0.00 0.00 83 1020.9
20260831043619 59 87 0.9 1.7 0.00 0.00 0.00 82 1020.9
20260831043114 59 87 0.0 1.7 0.00 0.00 0.00 82 1020.9
20260831042613 59 106 0.9 1.7 0.00 0.00 0.00 81 1020.9
20260831042103 59 316 0.9 1.7 0.00 0.00 0.00 81 1020.9
20260831041558 60 317 3.5 5.2 0.00 0.00 0.00 81 1020.9
20260831041057 60 79 0.0 0.9 0.00 0.00 0.00 80 1020.9
20260831040552 60 99 0.0 0.9 0.00 0.00 0.00 80 1020.9
20260831040051 60 96 0.0 1.7 0.00 0.00 0.00 80 1021.3
20260831035543 60 86 0.0 1.7 0.00 0.00 0.00 80 1020.9
20260831035039 60 22 0.9 2.6 0.00 0.00 0.00 80 1020.9
20260831034538 60 105 0.0 1.7 0.00 0.00 0.00 80 1020.9
20260831034034 60 94 0.0 0.9 0.00 0.00 0.00 79 1020.9
20260831033529 60 74 0.0 0.9 0.00 0.00 0.00 79 1020.9
20260831033025 60 102 0.0 0.9 0.00 0.00 0.00 79 1021.3
20260831032524 60 67 0.0 0.9 0.00 0.00 0.00 79 1020.9
20260831032020 60 102 0.0 0.9 0.00 0.00 0.00 79 1021.3
20260831031519 60 110 0.9 1.7 0.00 0.00 0.00 79 1020.9
20260831031019 61 91 0.0 1.7 0.00 0.00 0.00 78 1020.9
20260831030518 61 164 0.0 0.9 0.00 0.00 0.00 78 1020.9
20260831030017 61 115 0.0 0.9 0.00 0.00 0.00 78 1020.9
20260831025515 61 92 0.0 0.9 0.00 0.00 0.00 78 1020.9
20260831025011 61 86 0.9 1.7 0.00 0.00 0.00 78 1020.9
20260831024501 61 155 0.0 0.9 0.00 0.00 0.00 77 1020.9
20260831024000 61 108 0.0 0.0 0.00 0.00 0.00 77 1021.3
20260831023458 61 65 0.9 1.7 0.00 0.00 0.00 77 1021.3
20260831022953 62 17 1.7 3.5 0.00 0.00 0.00 77 1021.3
20260831022452 62 79 0.9 2.6 0.00 0.00 0.00 76 1021.3
20260831021948 62 345 1.7 2.6 0.00 0.00 0.00 76 1021.3
20260831021446 62 97 0.0 0.0 0.00 0.00 0.00 76 1021.3
20260831020943 62 98 0.9 2.6 0.00 0.00 0.00 75 1021.3
20260831020442 62 63 0.0 1.7 0.00 0.00 0.00 75 1021.3
20260831015937 62 79 0.9 0.9 0.00 0.00 0.00 75 1021.3
20260831015433 62 299 1.7 2.6 0.00 0.00 0.00 74 1021.6
20260831014928 63 0 1.7 3.5 0.00 0.00 0.00 73 1021.3
20260831014423 63 104 0.0 2.6 0.00 0.00 0.00 72 1021.3
20260831013919 63 57 0.9 1.7 0.00 0.00 0.00 72 1021.3
20260831013414 63 103 0.0 1.7 0.00 0.00 0.00 72 1021.3
20260831012908 63 84 0.0 0.9 0.00 0.00 0.00 71 1021.3
20260831012403 64 115 0.9 0.9 0.00 0.00 0.00 71 1021.6
20260831011858 64 88 0.9 0.9 0.00 0.00 0.00 70 1021.3
20260831011352 64 115 0.0 1.7 0.00 0.00 0.00 70 1021.6
20260831010848 64 90 0.9 1.7 0.00 0.00 0.00 70 1021.6
20260831010348 64 84 0.9 1.7 0.00 0.00 0.00 70 1021.6
20260831005844 64 352 1.7 1.7 0.00 0.00 0.00 70 1021.6
20260831005339 64 19 0.9 1.7 0.00 0.00 0.00 69 1021.6
20260831004834 64 81 0.9 1.7 0.00 0.00 0.00 70 1021.6
20260831004330 64 71 0.0 1.7 0.00 0.00 0.00 69 1021.6
20260831003826 64 164 1.7 3.5 0.00 0.00 0.00 69 1021.9
20260831003322 64 98 0.0 1.7 0.00 0.00 0.00 69 1021.6
20260831002820 64 106 0.0 0.9 0.00 0.00 0.00 69 1021.6
20260831002314 63 77 1.7 2.6 0.00 0.00 0.00 70 1021.9
20260831001810 64 73 0.9 1.7 0.00 0.00 0.00 69 1021.9
20260831001305 63 290 1.7 1.7 0.00 0.00 0.00 69 1021.9
20260831000803 64 104 0.0 6.1 0.00 0.00 0.00 68 1021.9
20260831000303 64 47 2.6 2.6 0.00 0.00 0.00 67 1021.9
20260830235801 64 323 2.6 5.2 0.00 0.00 0.00 67 1021.9
20260830235256 65 296 1.7 2.6 0.00 0.00 0.00 65 1021.9
20260830234751 66 358 0.9 2.6 0.00 0.00 0.00 63 1021.9
20260830234247 66 82 0.9 1.7 0.00 0.00 0.00 63 1021.6
20260830233743 66 77 0.9 5.2 0.00 0.00 0.00 64 1021.9
20260830233238 66 215 1.7 7.0 0.00 0.00 0.00 64 1021.6
20260830232733 66 121 0.0 3.5 0.00 0.00 0.00 63 1021.9
20260830232229 65 105 1.7 2.6 0.00 0.00 0.00 64 1021.9
20260830231726 65 45 0.9 2.6 0.00 0.00 0.00 63 1021.9
20260830231225 66 76 0.9 2.6 0.00 0.00 0.00 62 1021.9
20260830230720 66 60 1.7 2.6 0.00 0.00 0.00 60 1021.9
20260830230215 67 244 1.7 1.7 0.00 0.00 0.00 59 1021.9
20260830225709 68 98 0.9 3.5 0.00 0.00 0.00 59 1021.9
20260830225209 68 19 0.0 2.6 0.00 0.00 0.00 58 1021.9
20260830224708 72 301 2.6 3.5 0.00 0.00 0.00 52 1021.9
20260830224204 71 179 2.6 3.5 0.00 0.00 0.00 52 1021.6
20260830223701 71 105 0.9 5.2 0.00 0.00 0.00 53 1021.9
20260830223156 71 216 0.9 3.5 0.00 0.00 0.00 54 1021.9
20260830222650 69 139 0.9 1.7 0.00 0.00 0.00 55 1021.6
20260830222145 69 116 0.9 1.7 0.00 0.00 0.00 55 1021.9
20260830221636 70 77 0.9 5.2 0.00 0.00 0.00 53 1021.9
20260830221132 70 90 0.0 2.6 0.00 0.00 0.00 55 1021.9
20260830220627 70 108 1.7 3.5 0.00 0.00 0.00 53 1021.9
20260830220126 70 139 0.9 2.6 0.00 0.00 0.00 54 1022.3
20260830215625 69 121 0.0 3.5 0.00 0.00 0.00 55 1022.3
20260830215120 71 111 1.7 1.7 0.00 0.00 0.00 53 1022.3
20260830214615 70 106 0.9 1.7 0.00 0.00 0.00 52 1022.3
20260830214109 68 113 1.7 2.6 0.00 0.00 0.00 55 1022.3
20260830213609 69 105 1.7 1.7 0.00 0.00 0.00 56 1022.3
20260830213104 68 110 1.7 1.7 0.00 0.00 0.00 57 1022.3
20260830212600 68 116 1.7 3.5 0.00 0.00 0.00 58 1022.3
20260830212055 69 106 0.9 1.7 0.00 0.00 0.00 57 1022.3
20260830211550 69 110 0.0 6.1 0.00 0.00 0.00 59 1022.3
20260830211049 69 118 0.0 0.9 0.00 0.00 0.00 58 1022.3
20260830210545 68 109 5.2 7.0 0.00 0.00 0.00 59 1022.3
20260830210043 67 190 3.5 7.0 0.00 0.00 0.00 61 1022.3
20260830205541 66 157 4.3 5.2 0.00 0.00 0.00 64 1022.3
20260830205037 66 154 3.5 6.1 0.00 0.00 0.00 64 1022.3
20260830204536 65 159 6.1 7.0 0.00 0.00 0.00 65 1022.3